Location: La Réole
(44.5811°N, 0.0413°W)
Time: 08:54:03
(UTC+01:00)

ISS - Visible Passes

Search period start: 22 January 2019 00:00
Search period end: 01 February 2019 00:00
Orbit: 404 x 410 km, 51.6° (Epoch: 23 January)

Date Brightness Start Highest point End Pass type
(mag) Time Alt. Az. Time Alt. Az. Time Alt. Az.
22 Jan -2.5 19:27:17 10° SSW 19:30:01 25° SE 19:30:01 25° SE visible
23 Jan -1.7 18:37:00 10° S 18:38:55 15° SE 18:40:52 10° E visible
23 Jan -2.2 20:11:46 10° WSW 20:13:48 35° WSW 20:13:48 35° WSW visible
24 Jan -3.7 19:20:29 10° SW 19:23:44 58° SE 19:24:46 37° E visible
24 Jan -0.2 20:57:24 10° W 20:57:30 11° W 20:57:30 11° W visible
25 Jan -2.7 18:29:28 10° SSW 18:32:27 33° SE 18:35:28 10° ENE visible
25 Jan -2.6 20:05:46 10° W 20:08:23 39° NW 20:08:23 39° NW visible
26 Jan -3.6 19:14:13 10° WSW 19:17:29 66° NNW 19:19:13 25° NE visible
26 Jan -0.4 20:51:39 10° WNW 20:51:56 12° WNW 20:51:56 12° WNW visible
27 Jan -2.3 19:59:56 10° WNW 20:02:42 29° NNW 20:02:42 29° NNW visible
28 Jan -2.8 19:08:13 10° W 19:11:20 37° NNW 19:13:25 18° NE visible
28 Jan -0.6 20:45:45 10° NW 20:46:08 12° NW 20:46:08 12° NW visible
29 Jan -2.1 19:54:05 10° WNW 19:56:49 24° N 19:56:49 24° N visible
30 Jan -2.3 19:02:21 10° WNW 19:05:13 27° NNW 19:07:29 14° NE visible
30 Jan -0.8 20:39:37 10° NW 20:40:12 13° NW 20:40:12 13° NW visible
31 Jan -2.2 19:48:04 10° NW 19:50:48 23° N 19:50:52 23° N visible
